Weather History for KAEG - April, 2014

Change the Weather History Date:

Friday, April 25, 2014

  Actual Average Record
Temperature  
Mean Temperature 54 °F -  
Max Temperature 77 °F - - ()
Min Temperature 33 °F - - ()
Degree Days  
Heating Degree Days 11    
Growing Degree Days 4 (Base 50)    
Moisture  
Dew Point 9 °F    
Average Humidity 17    
Maximum Humidity 30    
Minimum Humidity 10    
Precipitation  
Precipitation 0.00 in - - ()
Sea Level Pressure  
Sea Level Pressure 29.97 in    
Wind  
Wind Speed 8 mph (West)    
Max Wind Speed 21 mph    
Max Gust Speed 29 mph    
Visibility 10 miles    
Events      
T = Trace of Precipitation, MM = Missing Value Source: NWS Daily Summary

Daily Weather History Graph

Daily Weather History Graph

Search for Another Location

Airport or City:

Trip Planner

Search our weather history database for the weather conditions in past years. The results will help you decide how hot, cold, wet, or windy it might be!

Date:

Astronomy

Apr. 25, 2014 Rise Set
Actual Time 6:22 AM MDT 7:48 PM MDT
Civil Twilight 5:56 AM MDT 8:14 PM MDT
Nautical Twilight 5:24 AM MDT 8:46 PM MDT
Astronomical Twilight 4:50 AM MDT 9:20 PM MDT
Moon 4:03 AM MDT 4:21 PM MDT
Length of Visible Light 14h 18m
Length of Day
13h 25m
Waning Crescent, 15% of the Moon is Illuminated
Apr 25
Waning Crescent
Apr 29
New
May 6
First Quarter
May 14
Full
May 21
Last Quarter

Hourly Weather History & Observations

Time (MDT) Temp. Windchill Dew Point Humidity Pressure Visibility Wind Dir Wind Speed Gust Speed Precip Events Conditions
12:15 AM 44.6 °F 40.7 °F 4.1 °F 19% 30.04 in 10.0 mi NNW 6.9 mph - N/A   Clear
12:35 AM 44.8 °F 39.9 °F 4.5 °F 19% 30.05 in 10.0 mi NW 9.2 mph - N/A   Clear
12:55 AM 45.0 °F 40.6 °F 4.6 °F 19% 30.05 in 10.0 mi NNW 8.1 mph - N/A   Clear
1:15 AM 45.3 °F 40.6 °F 4.6 °F 19% 30.05 in 10.0 mi NNW 9.2 mph - N/A   Clear
1:35 AM 44.6 °F 40.2 °F 3.9 °F 19% 30.05 in 10.0 mi NW 8.1 mph - N/A   Clear
1:55 AM 45.0 °F 41.2 °F 3.2 °F 18% 30.04 in 10.0 mi NW 6.9 mph - N/A   Clear
2:15 AM 43.0 °F 39.5 °F 2.8 °F 19% 30.03 in 10.0 mi NW 5.8 mph - N/A   Clear
2:35 AM 41.7 °F 38.8 °F 3.0 °F 20% 30.03 in 10.0 mi NW 4.6 mph - N/A   Clear
2:55 AM 44.8 °F 42.4 °F 2.7 °F 18% 30.03 in 10.0 mi NNW 4.6 mph - N/A   Clear
3:15 AM 39.2 °F 37.0 °F 3.2 °F 22% 30.03 in 10.0 mi WNW 3.5 mph - N/A   Clear
3:35 AM 38.5 °F 32.7 °F 3.6 °F 23% 30.03 in 10.0 mi West 8.1 mph - N/A   Clear
3:55 AM 39.2 °F 33.0 °F 3.4 °F 22% 30.03 in 10.0 mi WNW 9.2 mph - N/A   Clear
4:15 AM 41.0 °F 35.8 °F 3.9 °F 21% 30.03 in 10.0 mi WNW 8.1 mph - N/A   Clear
4:35 AM 39.7 °F 37.6 °F 3.9 °F 23% 30.04 in 10.0 mi NW 3.5 mph - N/A   Clear
5:48 AM 35.6 °F - 3.2 °F 26% 30.04 in 10.0 mi Calm Calm - N/A   Clear
6:48 AM 33.8 °F 30.8 °F 5.0 °F 30% 30.06 in 10.0 mi West 3.5 mph - N/A   Scattered Clouds
7:50 AM 48.2 °F - 6.8 °F 19% 30.08 in 10.0 mi Calm Calm - N/A   Mostly Cloudy
8:50 AM 51.8 °F - 8.6 °F 18% 30.08 in 10.0 mi Calm Calm - N/A   Mostly Cloudy
9:50 AM 55.4 °F - 10.4 °F 17% 30.08 in 10.0 mi Variable 3.5 mph - N/A   Mostly Cloudy
10:48 AM 60.8 °F - 12.2 °F 15% 30.06 in 10.0 mi Variable 3.5 mph - N/A   Mostly Cloudy
11:48 AM 64.4 °F - 12.2 °F 13% 30.04 in 10.0 mi Variable 3.5 mph - N/A   Mostly Cloudy
12:48 PM 69.8 °F - 14.0 °F 12% 30.00 in 10.0 mi SSW 8.1 mph 17.3 mph N/A   Mostly Cloudy
1:48 PM 71.6 °F - 14.0 °F 11% 29.98 in 10.0 mi SE 11.5 mph 18.4 mph N/A   Mostly Cloudy
2:48 PM 71.6 °F - 14.0 °F 11% 29.95 in 10.0 mi South 10.4 mph - N/A   Mostly Cloudy
3:51 PM 73.4 °F - 17.6 °F 12% 29.90 in 10.0 mi SSE 6.9 mph 19.6 mph N/A   Mostly Cloudy
4:49 PM 75.2 °F - 15.8 °F 11% 29.86 in 10.0 mi SE 15.0 mph 20.7 mph N/A   Mostly Cloudy
5:50 PM 75.2 °F - 14.0 °F 10% 29.83 in 10.0 mi SW 9.2 mph 17.3 mph N/A   Mostly Cloudy
6:50 PM 73.4 °F - 14.0 °F 10% 29.83 in 10.0 mi SW 20.7 mph 26.5 mph N/A   Mostly Cloudy
7:49 PM 66.2 °F - 12.2 °F 12% 29.83 in 10.0 mi SW 9.2 mph - N/A   Mostly Cloudy
8:50 PM 60.8 °F - 12.2 °F 15% 29.84 in 10.0 mi SSW 11.5 mph - N/A   Clear
9:15 PM 61.0 °F - 12.2 °F 15% 29.85 in 10.0 mi SW 11.5 mph - N/A   Clear
9:35 PM 61.7 °F - 12.6 °F 15% 29.85 in 10.0 mi SW 12.7 mph - N/A   Clear
9:55 PM 62.6 °F - 12.7 °F 14% 29.86 in 10.0 mi WSW 13.8 mph - N/A   Clear
10:15 PM 62.8 °F - 11.8 °F 14% 29.86 in 10.0 mi WSW 12.7 mph - N/A   Clear
10:35 PM 60.1 °F - 11.8 °F 15% 29.86 in 10.0 mi WSW 11.5 mph - N/A   Clear
10:55 PM 63.5 °F - 10.9 °F 13% 29.86 in 10.0 mi WSW 17.3 mph 24.2 mph N/A   Clear
11:15 PM 64.6 °F - 10.2 °F 12% 29.86 in 10.0 mi WSW 13.8 mph 28.8 mph N/A   Clear
11:35 PM 61.0 °F - 10.4 °F 14% 29.86 in 10.0 mi WSW 13.8 mph - N/A   Clear
11:55 PM 59.0 °F - 10.4 °F 15% 29.86 in 10.0 mi WSW 12.7 mph - N/A   Clear